Location: Cahas Mountain Overlook
(37.0833°N, 80.1000°W)
Time: 09:11:57
(UTC-05:00)

S-56A Canister/Altair - Pass Details

Date: 29 November 2023
Orbit: 640 x 2488 km, 38.9° (Epoch: 25 February)

Event Time Altitude Azimuth Distance (km) Brightness Sun altitude
Rises 17:42:41 0° 284° (WNW) 3,289 11.8 -7.9°
Reaches altitude 10° 17:44:48 10° 283° (WNW) 2,501 11.1 -8.3°
Maximum altitude 17:50:42 77° 198° (SSW) 1,132 8.5 -9.4°
Drops below altitude 10° 17:59:40 10° 114° (ESE) 3,717 10.6 -11.1°
Sets 18:03:28 0° 113° (ESE) 5,005 11.2 -11.8°
